Waarnemingen

Advertentie
Mijn weer
Edinburgh/Gogarbank, Groot Brittannië (3166): temperatuur & dauwpunt: 15.10.2019 19:00:00 - 21.10.2019 19:00:00 (BST)Edinburgh/Gogarbank, Groot Brittannië (3166): temperatuur -20cm & temperatuur -100cm: 15.10.2019 19:00:00 - 21.10.2019 19:00:00 (BST)Edinburgh/Gogarbank, Groot Brittannië (3166): windsnelheid: 15.10.2019 19:00:00 - 21.10.2019 19:00:00 (BST)Edinburgh/Gogarbank, Groot Brittannië (3166): windrichting: 15.10.2019 19:00:00 - 21.10.2019 19:00:00 (BST)Edinburgh/Gogarbank, Groot Brittannië (3166): luchtdruk: 15.10.2019 19:00:00 - 21.10.2019 19:00:00 (BST)Edinburgh/Gogarbank, Groot Brittannië (3166): zicht: 15.10.2019 19:00:00 - 21.10.2019 19:00:00 (BST)Edinburgh/Gogarbank, Groot Brittannië (3166): Zonneschijnduur: 15.10.2019 19:00:00 - 21.10.2019 19:00:00 (BST)Edinburgh/Gogarbank, Groot Brittannië (3166): neerslag: 15.10.2019 19:00:00 - 21.10.2019 19:00:00 (BST)
Datum & Tijd tt [°C] td [°C] tt -20cm [°C] tt -100cm [°C] ff [km/u] ff [kn] dd ppp [hPa] vv [km] sd [min] rr [mm]
21.10.2019 19:00:00 8,1 3,3 - - 15 8 WZW 1021,1 50 0 0,0
21.10.2019 18:00:00 8,3 3,0 - - 15 8 W 1021,2 50 0 0,0
21.10.2019 17:00:00 8,4 2,5 - - 22 12 W 1021,4 50 0 0,0
21.10.2019 16:00:00 8,9 2,6 - - 21 11 WZW 1021,6 40 6 0,0
21.10.2019 15:00:00 9,2 3,0 - - 16 9 W 1022,3 50 12 0,0
21.10.2019 14:00:00 10,0 2,8 - - 13 7 WZW 1022,9 45 30 0,0
21.10.2019 13:00:00 9,4 2,8 - - 8 4 W 1023,6 30 54 0,0
21.10.2019 12:00:00 7,5 3,2 - - 8 4 W 1024,3 40 12 0,0
21.10.2019 11:00:00 6,4 3,1 - - 8 4 W 1024,7 40 48 0,0
21.10.2019 10:00:00 4,3 2,4 10,9 11,7 4 2 W 1024,6 50 48 0,0
21.10.2019 09:00:00 1,6 0,8 - - 4 2 ZW 1024,5 35 30 0,0
21.10.2019 08:00:00 0,9 0,2 - - 4 2 WZW 1023,9 50 0 0,0
21.10.2019 07:00:00 1,4 0,4 - - 4 2 ZZW 1023,9 50 0 0,0
21.10.2019 06:00:00 2,6 1,7 - - 8 4 ZZW 1024,0 50 0 0,0
21.10.2019 05:00:00 2,7 1,3 - - 8 4 W 1024,1 45 0 0,0
21.10.2019 04:00:00 5,1 3,1 - - 5 3 WZW 1024,1 50 0 0,0
21.10.2019 03:00:00 6,0 3,3 - - 4 2 W 1024,1 50 0 0,0
21.10.2019 02:00:00 6,5 2,9 - - 5 3 W 1024,0 50 0 0,0
21.10.2019 01:00:00 6,7 2,8 - - 4 2 Z 1023,6 50 - 0,0
21.10.2019 00:00:00 6,4 3,8 - - 4 2 W 1023,0 50 0 0,0
20.10.2019 23:00:00 6,3 3,6 - - 5 3 ZW 1023,0 50 0 0,0
20.10.2019 22:00:00 6,0 3,9 - - 8 4 N 1022,3 50 0 0,0
20.10.2019 21:00:00 6,7 2,9 - - 5 3 NNO 1021,7 50 0 0,0
20.10.2019 20:00:00 7,6 3,6 - - 9 5 NNO 1021,2 50 0 0,0
20.10.2019 19:00:00 8,7 3,8 - - 13 7 NO 1020,7 50 0 0,0
20.10.2019 18:00:00 9,2 5,0 - - 8 4 NO 1019,8 45 0 0,0
20.10.2019 17:00:00 9,6 4,7 - - 8 4 NO 1019,0 45 0 0,0
20.10.2019 16:00:00 9,9 5,1 - - 11 6 NO 1018,3 50 0 0,0
20.10.2019 15:00:00 10,7 4,1 - - 16 9 N 1017,6 50 36 0,0
20.10.2019 14:00:00 10,5 3,8 - - 16 9 N 1017,1 50 24 0,0
20.10.2019 13:00:00 9,8 3,6 - - 15 8 N 1016,6 50 0 0,0
20.10.2019 12:00:00 9,4 4,1 - - 13 7 NNW 1016,1 35 0 0,0
20.10.2019 11:00:00 8,3 3,5 - - 11 6 NNW 1015,6 50 0 0,0
20.10.2019 10:00:00 8,0 3,6 11,0 11,7 9 5 NW 1014,8 45 0 0,0
20.10.2019 09:00:00 7,2 3,4 - - 9 5 WNW 1013,8 50 0 0,0
20.10.2019 08:00:00 7,2 3,3 - - 13 7 WNW 1012,9 50 0 0,0
20.10.2019 07:00:00 7,2 3,2 - - 15 8 NW 1012,0 45 0 0,0
20.10.2019 06:00:00 7,0 3,0 - - 18 10 WNW 1011,3 45 0 0,0
20.10.2019 05:00:00 6,9 3,1 - - 13 7 WNW 1010,6 35 0 0,0
20.10.2019 04:00:00 6,5 2,4 - - 13 7 NW 1009,9 40 0 0,0
20.10.2019 03:00:00 6,8 3,0 - - 11 6 NW 1009,5 40 0 0,0
20.10.2019 02:00:00 7,1 3,6 - - 8 4 NW 1009,0 40 0 0,0
20.10.2019 01:00:00 7,6 4,7 - - 11 6 NW 1008,2 30 - 0,0
20.10.2019 00:00:00 6,9 5,1 - - 9 5 NW 1007,4 45 0 0,0
19.10.2019 23:00:00 8,1 6,2 - - 9 5 NW 1006,8 14 0 0,0
19.10.2019 22:00:00 8,1 6,2 - - 11 6 NW 1006,0 24 0 0,0
19.10.2019 21:00:00 7,0 5,5 - - 5 3 WNW 1005,2 50 0 0,0
19.10.2019 20:00:00 9,0 6,2 - - 11 6 NNW 1004,6 50 0 0,2
19.10.2019 19:00:00 9,0 6,2 - - 9 5 NO 1003,9 40 0 0,0
19.10.2019 18:00:00 9,8 6,2 - - 4 2 NW 1003,0 35 18 0,0
19.10.2019 17:00:00 10,3 6,3 - - 8 4 NNO 1002,4 40 0 0,0
19.10.2019 16:00:00 10,9 6,0 - - 9 5 N 1001,6 45 0 0,0
19.10.2019 15:00:00 10,8 6,6 - - 8 4 N 1001,3 30 0 0,0
19.10.2019 14:00:00 10,8 6,1 - - 13 7 NNO 1000,8 35 6 0,0
19.10.2019 13:00:00 10,9 6,3 - - 15 8 NNO 1000,5 27 0 0,0
19.10.2019 12:00:00 9,8 6,0 - - 16 9 NNO 1000,1 35 0 0,0
19.10.2019 11:00:00 9,3 6,1 - - 21 11 NNO 999,4 24 0 0,0
19.10.2019 10:00:00 8,8 6,5 11,2 11,9 15 8 N 998,6 28 0 0,6
19.10.2019 09:00:00 8,6 7,1 - - 22 12 N 998,2 13 0 2,4
19.10.2019 08:00:00 9,0 8,5 - - 11 6 N 997,3 7 0 3,8
19.10.2019 07:00:00 9,0 8,8 - - 8 4 N 996,9 6 0 3,6
19.10.2019 06:00:00 8,8 8,7 - - 5 3 NNW 996,5 5 0 5,0
19.10.2019 05:00:00 8,6 8,4 - - 5 3 NNO 996,0 9 0 1,2
19.10.2019 04:00:00 8,8 8,4 - - 15 8 NNO 995,7 10 0 2,4
19.10.2019 03:00:00 8,9 8,7 - - 15 8 NNO 995,4 7 0 2,6
19.10.2019 02:00:00 8,9 8,7 - - 15 8 NNO 994,8 7 0 3,2
19.10.2019 01:00:00 9,0 8,9 - - 13 7 NNO 994,6 6 - 0,6
19.10.2019 00:00:00 8,7 8,6 - - 8 4 N 994,3 23 0 1,2
18.10.2019 23:00:00 8,1 7,9 - - 9 5 WNW 994,3 2,8 0 3,8
18.10.2019 22:00:00 8,0 7,8 - - 8 4 W 994,2 10 0 1,2
18.10.2019 21:00:00 8,0 7,7 - - 5 3 WZW 994,2 12 0 0,0
18.10.2019 20:00:00 8,1 7,7 - - 4 2 WZW 994,1 14 0 0,4
18.10.2019 19:00:00 8,1 7,5 - - 4 2 W 994,0 18 0 0,4
18.10.2019 18:00:00 8,8 8,2 - - 4 2 NNW 993,9 11 0 1,4
18.10.2019 17:00:00 9,2 8,2 - - 5 3 N 993,8 8 0 0,8
18.10.2019 16:00:00 9,8 9,2 - - 5 3 N 993,6 4,9 0 1,6
18.10.2019 15:00:00 10,5 9,0 - - 5 3 N 993,7 11 0 0,0
18.10.2019 14:00:00 10,3 9,0 - - 4 2 N 993,7 13 0 0,2
18.10.2019 13:00:00 10,4 8,3 - - 4 2 WNW 994,2 18 0 0,0
18.10.2019 12:00:00 9,8 8,0 - - 2 1 NNW 994,3 21 0 0,0
18.10.2019 11:00:00 8,6 8,0 - - 2 1 WZW 994,5 13 0 0,0
18.10.2019 10:00:00 7,8 7,6 11,4 12,0 2 1 N 994,6 9 0 0,0
18.10.2019 09:00:00 7,2 7,0 - - 2 1 N 994,7 13 0 0,4
18.10.2019 08:00:00 6,8 6,6 - - 4 2 ZZO 994,6 15 0 0,0
18.10.2019 07:00:00 6,4 6,3 - - 2 1 W 994,7 18 0 0,0
18.10.2019 06:00:00 5,2 4,9 - - 2 1 N 994,9 11 0 0,0
18.10.2019 05:00:00 5,1 4,2 - - 2 1 N 995,2 12 0 0,0
18.10.2019 04:00:00 6,7 5,7 - - 4 2 ONO 995,4 25 0 0,0
18.10.2019 03:00:00 8,1 6,6 - - 9 5 O 995,5 40 0 0,0
18.10.2019 02:00:00 7,5 6,5 - - 8 4 NO 995,8 50 0 0,0
18.10.2019 01:00:00 7,3 6,1 - - 4 2 O 996,1 45 - 0,0
18.10.2019 00:00:00 9,4 6,8 - - 5 3 ZO 995,9 50 0 0,0
17.10.2019 23:00:00 9,5 7,0 - - 9 5 O 996,2 28 0 0,0
17.10.2019 22:00:00 9,0 6,8 - - 11 6 OZO 996,6 29 0 0,0
17.10.2019 21:00:00 9,7 6,5 - - 16 9 OZO 997,0 30 0 0,0
17.10.2019 20:00:00 10,1 6,2 - - 13 7 ZO 997,5 40 0 0,0
17.10.2019 19:00:00 10,8 6,2 - - 13 7 ZO 997,8 45 0 0,0
17.10.2019 18:00:00 12,1 6,2 - - 9 5 ZZO 998,1 50 0 0,0
17.10.2019 17:00:00 12,6 6,9 - - 11 6 ZZO 998,3 35 6 0,0
17.10.2019 16:00:00 12,7 6,6 - - 9 5 Z 998,7 50 24 0,0
17.10.2019 15:00:00 13,6 7,4 - - 11 6 ZZO 999,2 24 24 0,0
17.10.2019 14:00:00 12,6 8,7 - - 9 5 OZO 999,8 30 0 0,0
17.10.2019 13:00:00 12,8 7,7 - - 8 4 ZZO 1000,0 27 6 0,0
17.10.2019 12:00:00 11,3 8,1 - - 11 6 OZO 1000,2 45 0 0,0
17.10.2019 11:00:00 10,3 7,8 - - 4 2 N 1000,5 30 24 0,0
17.10.2019 10:00:00 7,2 7,2 11,5 12,0 2 1 NNW 1000,7 22 36 0,0
17.10.2019 09:00:00 5,3 5,3 - - 4 2 ZZO 1000,9 18 18 0,0
17.10.2019 08:00:00 2,1 1,9 - - 2 1 W 1000,7 13 0 0,0
17.10.2019 07:00:00 2,7 2,6 - - 4 2 ZZO 1000,5 15 0 0,0
17.10.2019 06:00:00 2,1 1,7 - - 2 1 NW 1000,7 13 0 0,0
17.10.2019 05:00:00 3,2 2,8 - - 2 1 OZO 1000,7 15 0 0,0
17.10.2019 04:00:00 4,4 2,7 - - 4 2 W 1000,9 23 0 0,0
17.10.2019 03:00:00 5,7 3,8 - - 8 4 ZW 1001,2 26 0 0,0
17.10.2019 02:00:00 6,9 4,9 - - 11 6 ZZW 1001,4 30 0 0,0
17.10.2019 01:00:00 6,9 4,7 - - 9 5 ZZW 1001,1 35 - 0,0
17.10.2019 00:00:00 7,7 5,3 - - 11 6 ZZW 1000,9 30 0 0,0
16.10.2019 23:00:00 7,1 4,7 - - 8 4 ZZW 1000,9 27 0 0,0
16.10.2019 22:00:00 7,2 5,2 - - 11 6 ZZW 1000,7 27 0 0,0
16.10.2019 21:00:00 7,3 5,5 - - 11 6 ZZW 1000,3 30 0 0,0
16.10.2019 20:00:00 8,8 6,3 - - 11 6 W 999,9 25 0 0,0
16.10.2019 19:00:00 9,2 6,7 - - 11 6 ZW 999,4 35 0 0,0
16.10.2019 18:00:00 11,1 6,8 - - 15 8 WZW 998,6 35 48 0,0
16.10.2019 17:00:00 12,4 7,3 - - 15 8 W 998,0 40 54 0,0
16.10.2019 16:00:00 13,0 7,7 - - 18 10 W 997,8 30 48 0,0
16.10.2019 15:00:00 13,0 7,4 - - 24 13 W 997,5 40 42 0,0
16.10.2019 14:00:00 12,2 8,2 - - 24 13 WZW 996,8 50 6 0,0
16.10.2019 13:00:00 11,4 9,4 - - 21 11 WZW 996,1 45 0 0,0
16.10.2019 12:00:00 11,3 10,8 - - 4 2 W 995,6 11 0 0,0
16.10.2019 11:00:00 11,4 10,7 - - 4 2 N 995,0 21 0 0,0
16.10.2019 10:00:00 10,6 9,8 11,7 12,2 8 4 OZO 995,0 12 0 0,8
16.10.2019 09:00:00 11,3 8,7 - - 11 6 NO 995,1 25 0 0,2
16.10.2019 08:00:00 10,3 8,9 - - 5 3 ONO 995,3 13 0 0,0
16.10.2019 07:00:00 9,4 8,4 - - 4 2 O 995,4 10 0 0,0
16.10.2019 06:00:00 9,4 8,3 - - 8 4 O 996,0 12 0 0,0
16.10.2019 05:00:00 9,5 8,2 - - 9 5 O 996,6 10 0 0,0
16.10.2019 04:00:00 8,9 8,0 - - 8 4 O 997,2 21 0 0,0
16.10.2019 03:00:00 8,3 7,6 - - 5 3 O 998,2 35 0 0,0
16.10.2019 02:00:00 8,7 7,3 - - 4 2 O 998,7 45 0 0,0
16.10.2019 01:00:00 8,4 6,8 - - 8 4 ZO 999,0 45 - 0,0
16.10.2019 00:00:00 9,6 7,1 - - 9 5 ZO 999,4 50 0 0,0
15.10.2019 23:00:00 9,6 7,6 - - 8 4 O 999,4 50 0 0,0
15.10.2019 22:00:00 9,3 7,4 - - 5 3 ZO 1000,0 50 0 0,0
15.10.2019 21:00:00 10,5 7,8 - - 5 3 ZZO 1000,1 50 0 0,0
15.10.2019 20:00:00 10,7 8,9 - - 4 2 ZZO 1000,3 40 0 0,0
15.10.2019 19:00:00 10,9 9,1 - - 4 2 OZO 1000,5 45 0 0,0

tt = temperatuur
td = dauwpunt
tt -20cm = temperatuur -20cm
tt -100cm = temperatuur -100cm
ff = windsnelheid
dd = windrichting
ppp = luchtdruk
vv = zicht
sd = Zonneschijnduur
rr = neerslag

Weerstations in de omgeving